Location: Auckland
(36.8670°S, 174.7670°E)
Time: 06:59:36
(UTC+12:00)

Courier 1B Rocket - Pass Details

Date: 23 July 2019
Orbit: 920 x 1202 km, 28.3° (Epoch: 16 August)

Event Time Altitude Azimuth Distance (km) Brightness Sun altitude
Rises 03:58:06 0° 305° (NW) 4,097 - -41.5°
Reaches altitude 10° 04:01:15 10° 313° (NW) 3,128 - -40.9°
Maximum altitude 04:08:06 34° 14° (NNE) 1,824 - -39.5°
Exits shadow 04:09:26 32° 34° (NE) 1,879 6.6 -39.2°
Drops below altitude 10° 04:14:45 10° 76° (ENE) 3,022 8.2 -38.2°
Sets 04:17:44 0° 85° (E) 3,942 9.1 -37.6°
